Flag for Switzerland Weather past 2 weeks in Basel, Basel-Stadt, Switzerland

Now
90 °F

Overcast.


Feels Like: 93 °F
Forecast: 65 / 75 °F
Wind: 6 mph from West

Location: Bale-Mulhouse

Current Time: Jul 7, 2015 at 8:10:41 PM

Latest Report: Jul 7, 2015 at 7:00 PM


Visibility: 16 mi

Pressure: 29.73 "Hg

Humidity: 47%

Dew point: 67 °F

Location of BaselLocation

Historic Weather in Basel — Graph

°F

Basel temperature yesterday

Maximum temperature yesterday: 87 °F (at 6:00 PM)
Minimum temperature yesterday: 70 °F (at 6:00 AM)
Average temperature yesterday: 79 °F

Past Weeks' High & Low Weather Summary

 TemperatureHumidityPressure
High98 °F (Jul 5, 6:00 PM)98% (Jun 24, 5:00 AM)30.23 "Hg (Jun 24, 5:00 AM)
Low45 °F (Jun 24, 6:00 AM)28% (Jun 26, 3:00 PM)29.73 "Hg (Jul 7, 5:00 PM)
Average73 °F63%30.08 "Hg
* Reported Jun 22 8:00 PM — Jul 7 7:00 PM, Basel, Weather by CustomWeather, © 2015

Note: Actual official high and low records may vary slightly from our data, if they occured in-between our weather recording intervals... More about our weather records

Advertising

Basel weather history for previous 24 hours

 ConditionsComfort  
Time TempWeatherWind HumidityBarometerVisibility
7:00 PM
Tue, Jul 7
90 °FOvercast.6 mph47%29.73 "Hg16 mi
6:00 PM92 °FOvercast.5 mph45%29.73 "Hg16 mi
5:00 PM97 °FScattered clouds.5 mph32%29.73 "Hg12 mi
3:00 PM95 °FPartly sunny.6 mph34%29.80 "Hg12 mi
2:00 PM94 °FPartly sunny.6 mph44%29.82 "Hg12 mi
1:00 PM92 °FPartly sunny.8 mph46%29.85 "Hg12 mi
12:00 PM90 °FPartly sunny.8 mph49%29.86 "Hg12 mi
11:00 AM87 °FPartly sunny.3 mph53%29.88 "Hg12 mi
10:00 AM85 °FPartly sunny.3 mph55%29.90 "Hg12 mi
9:00 AM79 °FPartly sunny.6 mph62%29.93 "Hg12 mi
8:00 AM74 °FPartly sunny.3 mph73%29.94 "Hg12 mi
7:00 AM67 °FPartly sunny.1 mph89%29.97 "Hg17 mi
6:00 AM65 °FPartly sunny.3 mph90%29.98 "Hg17 mi
4:00 AM65 °FMild.1 mph90%29.99 "Hg16 mi
3:00 AM65 °FMild.1 mph89%30.01 "Hg18 mi
2:00 AM66 °FMild.1 mph89%30.02 "Hg16 mi
1:00 AM68 °FMild.2 mph86%30.03 "Hg14 mi
12:00 AM70 °FClear.2 mph83%30.04 "Hg25 mi
10:00 PM
Mon, Jul 6
74 °FPassing clouds.2 mph77%30.03 "Hg25 mi
9:00 PM80 °FPassing clouds.2 mph63%30.01 "Hg25 mi
8:00 PM85 °FSunny.3 mph53%30.02 "Hg25 mi
Weather by CustomWeather, © 2015

See weather overviewHow to use our weather pages